Other Surface Observations
Issued by NWS

Current Version | Previous Version | Text Only | Print | Product List | Glossary On
Versions: 1 2 3 4 5 6 7 8 9 10 11 12 13 14 15 16 17 18 19 20 21 22 23 24 25 26 27 28 29 30 31 32 33 34 35 36 37 38 39 40 41 42 43 44 45 46 47 48 49 50
000
SXUS52 KTAE 180718
OSOTAE
OSOTAE
North Florida/South Alabama/Southwest Georgia Weather Roundup
National Weather Service Tallahassee Florida
300 AM EDT THU SEP 18 2014

Note: "fair" indicates few or no clouds below 12,000 feet with no
significant weather and/or obstructions to visibility.

!FLZ017-115-028-034-025-180800
...North Florida...

CITY           SKY/WX    TMP DP  RH WIND       PRES   REMARKS
TALLAHASSEE    PTCLDY    72  70  93 CALM      29.89F
APALACHICOLA   CLEAR     75  71  87 CALM      29.89F
PERRY          CLEAR     72  72 100 CALM      29.90S
CROSS CITY       N/A     72  70  93 CALM      29.89F
HOMERVILLE     FAIR      73  72  94 CALM      29.90S
JACKSONVILLE   PTCLDY    73  73 100 CALM      29.88S
$$

!FLZ112-006-005-002-011-180800
...Florida Panhandle...

CITY           SKY/WX    TMP DP  RH WIND       PRES   REMARKS
MARIANNA       CLEAR     72  72 100 CALM      29.89F
BONIFAY        FAIR      71  70  96 CALM      29.91F
PANAMA CITY NW FAIR      73  70  90 CALM      29.89S
TYNDALL AFB    CLEAR     73  72  99 S1        29.89F
TYND DRONE APT FAIR      71  71  98 MISG      29.88S
DE FUNIAK SPR  FAIR      72  71  97 CALM      29.91F
EGLIN AFB      PTCLDY    75  71  87 CALM      29.90S
DESTIN         PTCLDY    79  72  79 NW3       29.90R
HURLBURT       PTCLDY    74  69  82 N3        29.89S
CRESTVIEW      MOCLDY    71  70  96 CALM      29.91F
PENSACOLA      CLEAR     74  72  93 NW3       29.89F
$$

!ALZ063-066-180800
...South Alabama...

CITY           SKY/WX    TMP DP  RH WIND       PRES   REMARKS
DOTHAN         CLEAR     71  70  96 CALM      29.94F
OZARK CAIRNS   CLEAR     71  69  95 W1        29.90F
FT RUCKER HELI CLEAR     69  68  96 MISG      29.90F FOG
RUCKER HELI 3  FAIR      70  69  97 NW5       29.94F
RUCKER HELI 2  FAIR      70  68  93 CALM      29.90F
FLORALA APT    CLEAR     73  69  87 N5        29.93S
ANDALUSIA      CLEAR     74  68  81 N3        29.92S
TROY           CLEAR     68  67  96 CALM      29.93F
EUFALA         FAIR      68  66  93 CALM      29.91F
MOBILE         CLOUDY    74  72  93 CALM      29.92S
$$

!GAZ120>161-180800
...Southwest and South Central Georgia...

CITY           SKY/WX    TMP DP  RH WIND       PRES   REMARKS
THOMASVILLE    FAIR      72  72 100 CALM      29.91S
BAINBRIDGE     CLEAR     73  72  94 NW7       29.90F
MOODY AFB      CLEAR     72  71  94 SW2       29.89F
VALDOSTA       CLEAR     72  70  93 CALM      29.90F FOG
MOULTRIE       CLEAR     72  72 100 CALM      29.91S
BLAKELY        CLEAR     72  70  94 CALM        N/A
ALBANY         CLEAR     72  70  93 NW3       29.92S
TIFTON         FAIR      71  70  97 NW3       29.90S
FITZGERALD     FAIR      72  69  91 CALM      29.92S
CORDELE        FAIR      70  68  95 CALM      29.92S
AMERICUS       FAIR      68  64  88 CALM      29.93F
$$

!GMZ750-755-770-775-180800
...Coastal and Buoy Obs...

STATION/POSITION TIME  TEMP    WIND        PRES    VSBY  WAVE
                       AIR SEA DIR/SP/G                  HT/PER
                 (UTC) (F)     (DEG/KT/KT) (MB)    (MI)  (FT/S)
KEATON BEACH     0700   79     310/  1/  3 1012.1F
CEDAR KEY        0700   79     310/  2/  2 1012.7F
C TOWER          0700   81     310/  5/  6 1012.2F
APALACHICOLA BUO 0700   81 85  340/  2/  4 1012.4F         2/ 5
PANAMA CITY BUOY 0554   81 85   30/  2/  4 1012.1F         1/ 6
MOBILE BUOY      0602   82 85  290/  4/  4 1012.8F         1/ 6
ORANGE BCH AL BU 0700   83 85  280/  6/  6 1012.2F         1/ 7
$$



USA.gov is the U.S. government's official web portal to all federal, state and local government web resources and services.